Year,Month,Day,Hour,Minute,Value (Times are PST for temperature in C)
2011,04,30,07,09,6.10
2011,04,30,07,10,6.10
2011,04,30,07,11,6.10
2011,04,30,07,12,6.10
2011,04,30,07,13,6.20
2011,04,30,07,14,6.20
2011,04,30,07,15,6.20
2011,04,30,07,16,6.30
2011,04,30,07,17,6.30
2011,04,30,07,18,6.30
2011,04,30,07,19,6.40
2011,04,30,07,20,6.40
2011,04,30,07,21,6.50
2011,04,30,07,22,6.50
2011,04,30,07,23,6.60
2011,04,30,07,24,6.60
2011,04,30,07,25,6.70
2011,04,30,07,26,6.70
2011,04,30,07,27,6.80
2011,04,30,07,28,6.80
2011,04,30,07,29,6.90
2011,04,30,07,30,7.00
2011,04,30,07,31,7.00
2011,04,30,07,32,7.10
2011,04,30,07,33,7.20
2011,04,30,07,34,7.20
2011,04,30,07,35,7.20
2011,04,30,07,36,7.30
2011,04,30,07,37,7.30
2011,04,30,07,38,7.40
2011,04,30,07,39,7.40
2011,04,30,07,40,7.50
2011,04,30,07,41,7.50
2011,04,30,07,42,7.60
2011,04,30,07,43,7.60
2011,04,30,07,44,7.60
2011,04,30,07,45,7.60
2011,04,30,07,46,7.70
2011,04,30,07,47,7.70
2011,04,30,07,48,7.70
2011,04,30,07,49,7.80
2011,04,30,07,50,7.80
2011,04,30,07,51,7.80
2011,04,30,07,52,7.80
2011,04,30,07,53,7.80
2011,04,30,07,54,7.80
2011,04,30,07,55,7.80
2011,04,30,07,56,7.80
2011,04,30,07,57,7.80
2011,04,30,07,58,7.80
2011,04,30,07,59,7.80
2011,04,30,08,00,7.80
2011,04,30,08,01,7.80
2011,04,30,08,02,7.80
2011,04,30,08,03,7.90
2011,04,30,08,04,7.90
2011,04,30,08,05,7.90
2011,04,30,08,06,7.90
2011,04,30,08,07,7.90
2011,04,30,08,08,8.00
2011,04,30,08,09,8.10
2011,04,30,08,10,8.10
2011,04,30,08,11,8.10
2011,04,30,08,12,8.20
2011,04,30,08,13,8.20
2011,04,30,08,14,8.20
2011,04,30,08,15,8.20
2011,04,30,08,16,8.20
2011,04,30,08,17,8.20
2011,04,30,08,18,8.30
2011,04,30,08,19,8.30
2011,04,30,08,20,8.30
2011,04,30,08,21,8.30
2011,04,30,08,22,8.40
2011,04,30,08,23,8.40
2011,04,30,08,24,8.50
2011,04,30,08,25,8.50
2011,04,30,08,26,8.50
2011,04,30,08,27,8.60
2011,04,30,08,28,8.60
2011,04,30,08,29,8.60
2011,04,30,08,30,8.60
2011,04,30,08,31,8.60
2011,04,30,08,32,8.60
2011,04,30,08,33,8.60
2011,04,30,08,34,8.70
2011,04,30,08,35,8.70
2011,04,30,08,36,8.70
2011,04,30,08,37,8.70
2011,04,30,08,38,8.80
2011,04,30,08,39,8.80
2011,04,30,08,40,8.90
2011,04,30,08,41,9.00
2011,04,30,08,42,9.10
2011,04,30,08,43,9.10
2011,04,30,08,44,9.10
2011,04,30,08,45,9.10
2011,04,30,08,46,9.10
2011,04,30,08,47,9.20
2011,04,30,08,48,9.20
2011,04,30,08,49,9.20
2011,04,30,08,50,9.20
2011,04,30,08,51,9.20
2011,04,30,08,52,9.10
2011,04,30,08,53,9.10
2011,04,30,08,54,9.00
2011,04,30,08,55,9.00
2011,04,30,08,56,9.10
2011,04,30,08,57,9.10
2011,04,30,08,58,9.10
2011,04,30,08,59,9.10
2011,04,30,09,00,9.10
2011,04,30,09,01,9.10
2011,04,30,09,02,9.20
2011,04,30,09,03,9.20
2011,04,30,09,04,9.30
2011,04,30,09,05,9.30
2011,04,30,09,06,9.30
2011,04,30,09,07,9.40
2011,04,30,09,08,9.40
2011,04,30,09,09,9.50
2011,04,30,09,10,9.50
2011,04,30,09,11,9.60
2011,04,30,09,12,9.60
2011,04,30,09,13,9.60
2011,04,30,09,14,9.70
2011,04,30,09,15,9.70
2011,04,30,09,16,9.70
2011,04,30,09,17,9.70
2011,04,30,09,18,9.60
2011,04,30,09,19,9.60
2011,04,30,09,20,9.60
2011,04,30,09,21,9.60
2011,04,30,09,22,9.50
2011,04,30,09,23,9.40
2011,04,30,09,24,9.40
2011,04,30,09,25,9.40
2011,04,30,09,26,9.40
2011,04,30,09,27,9.30
2011,04,30,09,28,9.30
2011,04,30,09,29,9.30
2011,04,30,09,30,9.30
2011,04,30,09,31,9.30
2011,04,30,09,32,9.30
2011,04,30,09,33,9.30
2011,04,30,09,34,9.40
2011,04,30,09,35,9.40
2011,04,30,09,36,9.40
2011,04,30,09,37,9.40
2011,04,30,09,38,9.50
2011,04,30,09,39,9.50
2011,04,30,09,40,9.50
2011,04,30,09,41,9.50
2011,04,30,09,42,9.60
2011,04,30,09,43,9.60
2011,04,30,09,44,9.60
2011,04,30,09,45,9.70
2011,04,30,09,46,9.70
2011,04,30,09,47,9.70
2011,04,30,09,48,9.70
2011,04,30,09,49,9.70
2011,04,30,09,50,9.60
2011,04,30,09,51,9.60
2011,04,30,09,52,9.60
2011,04,30,09,53,9.60
2011,04,30,09,54,9.50
2011,04,30,09,55,9.50
2011,04,30,09,56,9.50
2011,04,30,09,57,9.50
2011,04,30,09,58,9.40
2011,04,30,09,59,9.40
2011,04,30,10,00,9.40
2011,04,30,10,01,9.40
2011,04,30,10,02,9.40
2011,04,30,10,03,9.30
2011,04,30,10,04,9.40
2011,04,30,10,05,9.40
2011,04,30,10,06,9.40
2011,04,30,10,07,9.30
2011,04,30,10,08,9.30
2011,04,30,10,09,9.30
2011,04,30,10,10,9.30
2011,04,30,10,11,9.30
2011,04,30,10,12,9.30
2011,04,30,10,13,9.30
2011,04,30,10,14,9.30
2011,04,30,10,15,9.40
2011,04,30,10,16,9.40
2011,04,30,10,17,9.40
2011,04,30,10,18,9.50
2011,04,30,10,19,9.50
2011,04,30,10,20,9.50
2011,04,30,10,21,9.60
2011,04,30,10,22,9.60
2011,04,30,10,23,9.60
2011,04,30,10,24,9.50
2011,04,30,10,25,9.50
2011,04,30,10,26,9.50
2011,04,30,10,27,9.50
2011,04,30,10,28,9.60
2011,04,30,10,29,9.60
2011,04,30,10,30,9.60
2011,04,30,10,31,9.60
2011,04,30,10,32,9.70
2011,04,30,10,33,9.80
2011,04,30,10,34,9.80
2011,04,30,10,35,9.80
2011,04,30,10,36,9.80
2011,04,30,10,37,9.80
2011,04,30,10,38,9.70
2011,04,30,10,39,9.70
2011,04,30,10,40,9.70
2011,04,30,10,41,9.70
2011,04,30,10,42,9.70
2011,04,30,10,43,9.70
2011,04,30,10,44,9.70
2011,04,30,10,45,9.70
2011,04,30,10,46,9.60
2011,04,30,10,47,9.60
2011,04,30,10,48,9.60
2011,04,30,10,49,9.60
2011,04,30,10,50,9.70
2011,04,30,10,51,9.70
2011,04,30,10,52,9.80
2011,04,30,10,53,9.70
2011,04,30,10,54,9.70
2011,04,30,10,55,9.60
2011,04,30,10,56,9.60
2011,04,30,10,57,9.50
2011,04,30,10,58,9.60
2011,04,30,10,59,9.50
2011,04,30,11,00,9.50
2011,04,30,11,01,9.60
2011,04,30,11,02,9.60
2011,04,30,11,03,9.60
2011,04,30,11,04,9.60
2011,04,30,11,05,9.60
2011,04,30,11,06,9.50
2011,04,30,11,07,9.50
2011,04,30,11,08,9.50
2011,04,30,11,09,9.60
2011,04,30,11,10,9.60
2011,04,30,11,11,9.60
2011,04,30,11,12,9.70
2011,04,30,11,13,9.70
2011,04,30,11,14,9.80
2011,04,30,11,15,9.80
2011,04,30,11,16,9.80
2011,04,30,11,17,9.80
2011,04,30,11,18,9.70
2011,04,30,11,19,9.70
2011,04,30,11,20,9.80
2011,04,30,11,21,9.80
2011,04,30,11,22,9.90
2011,04,30,11,23,9.90
2011,04,30,11,24,10.00
2011,04,30,11,25,10.00
2011,04,30,11,26,10.00
2011,04,30,11,27,10.00
2011,04,30,11,28,10.10
2011,04,30,11,29,10.10
2011,04,30,11,30,10.10
2011,04,30,11,31,10.00
2011,04,30,11,32,10.00
2011,04,30,11,33,10.10
2011,04,30,11,34,10.10
2011,04,30,11,35,10.00
2011,04,30,11,36,10.00
2011,04,30,11,37,10.00
2011,04,30,11,38,10.00
2011,04,30,11,39,10.00
2011,04,30,11,40,10.10
2011,04,30,11,41,10.10
2011,04,30,11,42,10.20
2011,04,30,11,43,10.20
2011,04,30,11,44,10.20
2011,04,30,11,45,10.20
2011,04,30,11,46,10.20
2011,04,30,11,47,10.20
2011,04,30,11,48,10.20
2011,04,30,11,49,10.20
2011,04,30,11,50,10.20
2011,04,30,11,51,10.10
2011,04,30,11,52,10.00
2011,04,30,11,53,9.90
2011,04,30,11,54,9.80
2011,04,30,11,55,9.80
2011,04,30,11,56,9.80
2011,04,30,11,57,9.90
2011,04,30,11,58,9.90
2011,04,30,11,59,9.90
2011,04,30,12,00,9.90
2011,04,30,12,01,10.00
2011,04,30,12,02,10.00
2011,04,30,12,03,10.10
2011,04,30,12,04,10.20
2011,04,30,12,05,10.20
2011,04,30,12,06,10.20
2011,04,30,12,07,10.20
2011,04,30,12,08,10.20
2011,04,30,12,09,10.10
2011,04,30,12,10,10.10
2011,04,30,12,11,10.10
2011,04,30,12,12,10.10
2011,04,30,12,13,10.10
2011,04,30,12,14,10.10
2011,04,30,12,15,10.10
2011,04,30,12,16,10.10
2011,04,30,12,17,10.10
2011,04,30,12,18,10.10
2011,04,30,12,19,10.10
2011,04,30,12,20,10.10
2011,04,30,12,21,10.10
2011,04,30,12,22,10.10
2011,04,30,12,23,10.10
2011,04,30,12,24,10.10
2011,04,30,12,25,10.10
2011,04,30,12,26,10.10
2011,04,30,12,27,10.20
2011,04,30,12,28,10.20
2011,04,30,12,29,10.20
2011,04,30,12,30,10.20
2011,04,30,12,31,10.20
2011,04,30,12,32,10.30
2011,04,30,12,33,10.30
2011,04,30,12,34,10.30
2011,04,30,12,35,10.30
2011,04,30,12,36,10.30
2011,04,30,12,37,10.30
2011,04,30,12,38,10.30
2011,04,30,12,39,10.30
2011,04,30,12,40,10.40
2011,04,30,12,41,10.40
2011,04,30,12,42,10.40
2011,04,30,12,43,10.50
2011,04,30,12,44,10.50
2011,04,30,12,45,10.60
2011,04,30,12,46,10.70
2011,04,30,12,47,10.70
2011,04,30,12,48,10.80
2011,04,30,12,49,10.80
2011,04,30,12,50,10.80
2011,04,30,12,51,10.80
2011,04,30,12,52,10.80
2011,04,30,12,53,10.90
2011,04,30,12,54,10.90
2011,04,30,12,55,10.80
2011,04,30,12,56,10.80
2011,04,30,12,57,10.80
2011,04,30,12,58,10.80
2011,04,30,12,59,10.80
2011,04,30,13,00,10.70
2011,04,30,13,01,10.70
2011,04,30,13,02,10.70
2011,04,30,13,03,10.60
2011,04,30,13,04,10.60
2011,04,30,13,05,10.60
2011,04,30,13,06,10.70
2011,04,30,13,07,10.70
2011,04,30,13,08,10.70
2011,04,30,13,09,10.80
2011,04,30,13,10,10.80
2011,04,30,13,11,10.80
2011,04,30,13,12,10.80
2011,04,30,13,13,10.80
2011,04,30,13,14,10.80
2011,04,30,13,15,10.90
2011,04,30,13,16,10.90
2011,04,30,13,17,10.90
2011,04,30,13,18,10.90
2011,04,30,13,19,11.00
2011,04,30,13,20,11.00
2011,04,30,13,21,11.10
2011,04,30,13,22,11.10
2011,04,30,13,23,11.10
2011,04,30,13,24,11.10
2011,04,30,13,25,11.10
2011,04,30,13,26,11.10
2011,04,30,13,27,11.10
2011,04,30,13,28,11.20
2011,04,30,13,29,11.20
2011,04,30,13,30,11.20
2011,04,30,13,31,11.30
2011,04,30,13,32,11.30
2011,04,30,13,33,11.30
2011,04,30,13,34,11.30
2011,04,30,13,35,11.30
2011,04,30,13,36,11.40
2011,04,30,13,37,11.40
2011,04,30,13,38,11.50
2011,04,30,13,39,11.50
2011,04,30,13,40,11.50
2011,04,30,13,41,11.60
2011,04,30,13,42,11.60
2011,04,30,13,43,11.50
2011,04,30,13,44,11.50
2011,04,30,13,45,11.50
2011,04,30,13,46,11.40
2011,04,30,13,47,11.50
2011,04,30,13,48,11.60
2011,04,30,13,49,11.60
2011,04,30,13,50,11.80
2011,04,30,13,51,11.80
2011,04,30,13,52,12.00
2011,04,30,13,53,12.10
2011,04,30,13,54,12.20
2011,04,30,13,55,12.30
2011,04,30,13,56,12.40
2011,04,30,13,57,12.40
2011,04,30,13,58,12.40
2011,04,30,13,59,12.50
2011,04,30,14,00,12.40
2011,04,30,14,01,12.40
2011,04,30,14,02,12.40
2011,04,30,14,03,12.40
2011,04,30,14,04,12.40
2011,04,30,14,05,12.30
2011,04,30,14,06,12.30
2011,04,30,14,07,12.20
2011,04,30,14,08,12.20
2011,04,30,14,09,12.10
2011,04,30,14,10,12.00
2011,04,30,14,11,11.90
2011,04,30,14,12,11.90
2011,04,30,14,13,11.90
2011,04,30,14,14,11.90
2011,04,30,14,15,11.80
2011,04,30,14,16,11.80
2011,04,30,14,17,11.80
2011,04,30,14,18,11.80
2011,04,30,14,19,11.80
2011,04,30,14,20,11.80
2011,04,30,14,21,11.70
2011,04,30,14,22,11.70
2011,04,30,14,23,11.70
2011,04,30,14,24,11.70
2011,04,30,14,25,11.70
2011,04,30,14,26,11.70
2011,04,30,14,27,11.70
2011,04,30,14,28,11.70
2011,04,30,14,29,11.70
2011,04,30,14,30,11.70
2011,04,30,14,31,11.60
2011,04,30,14,32,11.60
2011,04,30,14,33,11.50
2011,04,30,14,34,11.40
2011,04,30,14,35,11.40
2011,04,30,14,36,11.40
2011,04,30,14,37,11.40
2011,04,30,14,38,11.50
2011,04,30,14,39,11.50
2011,04,30,14,40,11.60
2011,04,30,14,41,11.60
2011,04,30,14,42,11.70
2011,04,30,14,43,11.70
2011,04,30,14,44,11.70
2011,04,30,14,45,11.70
2011,04,30,14,46,11.70
2011,04,30,14,47,11.80
2011,04,30,14,48,11.80
2011,04,30,14,49,11.80
2011,04,30,14,50,11.80
2011,04,30,14,51,11.90
2011,04,30,14,52,11.90
2011,04,30,14,53,11.90
2011,04,30,14,54,11.90
2011,04,30,14,55,12.00
2011,04,30,14,56,12.00
2011,04,30,14,57,12.00
2011,04,30,14,58,12.10
2011,04,30,14,59,12.00
2011,04,30,15,00,12.00
2011,04,30,15,01,12.10
2011,04,30,15,02,12.10
2011,04,30,15,03,12.10
2011,04,30,15,04,12.20
2011,04,30,15,05,12.20
2011,04,30,15,06,12.20
2011,04,30,15,07,12.20
2011,04,30,15,08,12.10
2011,04,30,15,09,12.00
2011,04,30,15,10,12.00
2011,04,30,15,11,12.00
2011,04,30,15,12,12.00
2011,04,30,15,13,12.00
2011,04,30,15,14,12.10
2011,04,30,15,15,12.20
2011,04,30,15,16,12.30
2011,04,30,15,17,12.40
2011,04,30,15,18,12.40
2011,04,30,15,19,12.50
2011,04,30,15,20,12.50
2011,04,30,15,21,12.60
2011,04,30,15,22,12.60
2011,04,30,15,23,12.70
2011,04,30,15,24,12.70
2011,04,30,15,25,12.80
2011,04,30,15,26,12.80
2011,04,30,15,27,12.80
2011,04,30,15,28,12.80
2011,04,30,15,29,12.80
2011,04,30,15,30,12.80
2011,04,30,15,31,12.80
2011,04,30,15,32,12.70
2011,04,30,15,33,12.70
2011,04,30,15,34,12.60
2011,04,30,15,35,12.60
2011,04,30,15,36,12.60
2011,04,30,15,37,12.60
2011,04,30,15,38,12.60
2011,04,30,15,39,12.60
2011,04,30,15,40,12.60
2011,04,30,15,41,12.60
2011,04,30,15,42,12.60
2011,04,30,15,43,12.70
2011,04,30,15,44,12.70
2011,04,30,15,45,12.70
2011,04,30,15,46,12.70
2011,04,30,15,47,12.70
2011,04,30,15,48,12.60
2011,04,30,15,49,12.60
2011,04,30,15,50,12.50
2011,04,30,15,51,12.50
2011,04,30,15,52,12.40
2011,04,30,15,53,12.40
2011,04,30,15,54,12.40
2011,04,30,15,55,12.40
2011,04,30,15,56,12.50
2011,04,30,15,57,12.60
2011,04,30,15,58,12.60
2011,04,30,15,59,12.70
2011,04,30,16,00,12.80
2011,04,30,16,01,12.80
2011,04,30,16,02,12.80
2011,04,30,16,03,12.90
2011,04,30,16,04,12.90
2011,04,30,16,05,12.90
2011,04,30,16,06,12.90
2011,04,30,16,07,12.80
2011,04,30,16,08,12.80
2011,04,30,16,09,12.80
2011,04,30,16,10,12.80
2011,04,30,16,11,12.80
2011,04,30,16,12,12.80
2011,04,30,16,13,12.80
2011,04,30,16,14,12.80
2011,04,30,16,15,12.80
2011,04,30,16,16,12.80
2011,04,30,16,17,12.70
2011,04,30,16,18,12.70
2011,04,30,16,19,12.70
2011,04,30,16,20,12.70
2011,04,30,16,21,12.70
2011,04,30,16,22,12.70
2011,04,30,16,23,12.80
2011,04,30,16,24,12.80
2011,04,30,16,25,12.80
2011,04,30,16,26,12.80
2011,04,30,16,27,12.80
2011,04,30,16,28,12.90
2011,04,30,16,29,13.00
2011,04,30,16,30,13.00
2011,04,30,16,31,13.10
2011,04,30,16,32,13.20
2011,04,30,16,33,13.20
2011,04,30,16,34,13.20
2011,04,30,16,35,13.20
2011,04,30,16,36,13.30
2011,04,30,16,37,13.30
2011,04,30,16,38,13.20
2011,04,30,16,39,13.20
2011,04,30,16,40,13.20
2011,04,30,16,41,13.20
2011,04,30,16,42,13.20
2011,04,30,16,43,13.20
2011,04,30,16,44,13.20
2011,04,30,16,45,13.20
2011,04,30,16,46,13.30
2011,04,30,16,47,13.30
2011,04,30,16,48,13.40
2011,04,30,16,49,13.40
2011,04,30,16,50,13.40
2011,04,30,16,51,13.40
2011,04,30,16,52,13.40
2011,04,30,16,53,13.40
2011,04,30,16,54,13.40
2011,04,30,16,55,13.30
2011,04,30,16,56,13.30
2011,04,30,16,57,13.30
2011,04,30,16,58,13.30
2011,04,30,16,59,13.20
2011,04,30,17,00,13.20
2011,04,30,17,01,13.30
2011,04,30,17,02,13.30
2011,04,30,17,03,13.30
2011,04,30,17,04,13.30
2011,04,30,17,05,13.30
2011,04,30,17,06,13.40
2011,04,30,17,07,13.40
2011,04,30,17,08,13.40
2011,04,30,17,09,13.50
2011,04,30,17,10,13.50
2011,04,30,17,11,13.60
2011,04,30,17,12,13.70
2011,04,30,17,13,13.70
2011,04,30,17,14,13.70
2011,04,30,17,15,13.70
2011,04,30,17,16,13.60
2011,04,30,17,17,13.60
2011,04,30,17,18,13.60
2011,04,30,17,19,13.70
2011,04,30,17,20,13.70
2011,04,30,17,21,13.70
2011,04,30,17,22,13.70
2011,04,30,17,23,13.60
2011,04,30,17,24,13.50
2011,04,30,17,25,13.40
2011,04,30,17,26,13.30
2011,04,30,17,27,13.20
2011,04,30,17,28,13.20
2011,04,30,17,29,13.20
2011,04,30,17,30,13.10
2011,04,30,17,31,13.10
2011,04,30,17,32,13.10
2011,04,30,17,33,13.00
2011,04,30,17,34,12.90
2011,04,30,17,35,12.90
2011,04,30,17,36,12.80
2011,04,30,17,37,12.80
2011,04,30,17,38,12.80
2011,04,30,17,39,12.80
2011,04,30,17,40,12.80
2011,04,30,17,41,12.80
2011,04,30,17,42,12.80
2011,04,30,17,43,12.80
2011,04,30,17,44,12.80
2011,04,30,17,45,12.80
2011,04,30,17,46,12.70
2011,04,30,17,47,12.70
2011,04,30,17,48,12.70
2011,04,30,17,49,12.70
2011,04,30,17,50,12.70
2011,04,30,17,51,12.70
2011,04,30,17,52,12.70
2011,04,30,17,53,12.70
2011,04,30,17,54,12.70
2011,04,30,17,55,12.70
2011,04,30,17,56,12.70
2011,04,30,17,57,12.60
2011,04,30,17,58,12.70
2011,04,30,17,59,12.70
2011,04,30,18,00,12.70
2011,04,30,18,01,12.70
2011,04,30,18,02,12.70
2011,04,30,18,03,12.70
2011,04,30,18,04,12.70
2011,04,30,18,05,12.70
2011,04,30,18,06,12.70
2011,04,30,18,07,12.70
2011,04,30,18,08,12.70
2011,04,30,18,09,12.60
2011,04,30,18,10,12.60
2011,04,30,18,11,12.60
2011,04,30,18,12,12.60
2011,04,30,18,13,12.60
2011,04,30,18,14,12.60
2011,04,30,18,15,12.70
2011,04,30,18,16,12.70
2011,04,30,18,17,12.70
2011,04,30,18,18,12.70
2011,04,30,18,19,12.70
2011,04,30,18,20,12.70
2011,04,30,18,21,12.70
2011,04,30,18,22,12.70
2011,04,30,18,23,12.70
2011,04,30,18,24,12.70
2011,04,30,18,25,12.70
2011,04,30,18,26,12.70
2011,04,30,18,27,12.80
2011,04,30,18,28,12.80
2011,04,30,18,29,12.80
2011,04,30,18,30,12.90
2011,04,30,18,31,12.90
2011,04,30,18,32,12.90
2011,04,30,18,33,12.90
2011,04,30,18,34,12.90
2011,04,30,18,35,12.90
2011,04,30,18,36,12.90
2011,04,30,18,37,12.90
2011,04,30,18,38,12.90
2011,04,30,18,39,12.90
2011,04,30,18,40,12.90
2011,04,30,18,41,12.90
2011,04,30,18,42,12.90
2011,04,30,18,43,12.90
2011,04,30,18,44,12.80
2011,04,30,18,45,12.70
2011,04,30,18,46,12.60
2011,04,30,18,47,12.50
2011,04,30,18,48,12.50
2011,04,30,18,49,12.40
2011,04,30,18,50,12.30
2011,04,30,18,51,12.30
2011,04,30,18,52,12.20
2011,04,30,18,53,12.20
2011,04,30,18,54,12.10
2011,04,30,18,55,12.10
2011,04,30,18,56,12.10
2011,04,30,18,57,12.10
2011,04,30,18,58,12.10
2011,04,30,18,59,12.10
2011,04,30,19,00,12.10
2011,04,30,19,01,12.10
2011,04,30,19,02,12.10
2011,04,30,19,03,12.10
2011,04,30,19,04,12.10
2011,04,30,19,05,12.10
2011,04,30,19,06,12.10
2011,04,30,19,07,12.00
2011,04,30,19,08,12.00
2011,04,30,19,09,12.00
2011,04,30,19,10,12.00
2011,04,30,19,11,12.00
2011,04,30,19,12,12.00
2011,04,30,19,13,12.10
2011,04,30,19,14,12.10
2011,04,30,19,15,12.10
2011,04,30,19,16,12.10
2011,04,30,19,17,12.10
2011,04,30,19,18,12.10
2011,04,30,19,19,12.10
2011,04,30,19,20,12.00
2011,04,30,19,21,11.90
2011,04,30,19,22,11.90
2011,04,30,19,23,11.80
2011,04,30,19,24,11.80
2011,04,30,19,25,11.80
2011,04,30,19,26,11.70
2011,04,30,19,27,11.70
2011,04,30,19,28,11.70
2011,04,30,19,29,11.70
2011,04,30,19,30,11.70
2011,04,30,19,31,11.70
2011,04,30,19,32,11.70
2011,04,30,19,33,11.70
2011,04,30,19,34,11.70
2011,04,30,19,35,11.70
2011,04,30,19,36,11.70
2011,04,30,19,37,11.70
2011,04,30,19,38,11.70
2011,04,30,19,39,11.70
2011,04,30,19,40,11.70
2011,04,30,19,41,11.70
